Home > Time Zones > World Clock > Weather > France > Lens > Past weeks

Flag for France Weather past 2 weeks in Lens, France

Now
48 °F

Clear.


Feels Like: 48 °F
Forecast: 50 / 63 °F
Wind: 2 mph from South

Location: Lille Airport

Current Time: Aug 21, 2014 at 6:52:20 AM

Latest Report: Aug 21, 2014 at 6:30 AM


Visibility: 10 mi

Pressure: 30.04 "Hg

Humidity: 100%

Dew point: 48 °F

Location of LensLocation

Historic Weather in Lens — Graph

°F

Lens temperature yesterday

Maximum temperature yesterday: 64 °F (at 1:30 PM)
Minimum temperature yesterday: 46 °F (at 5:00 AM)
Average temperature yesterday: 55 °F

Past Weeks' High & Low Weather Summary

 TemperatureHumidityPressure
High77 °F (Aug 7, 2:30 PM)100% (Aug 7, 3:00 AM)30.15 "Hg (Aug 7, 3:00 AM)
Low46 °F (Aug 20, 5:00 AM)46% (Aug 19, 4:00 PM)29.50 "Hg (Aug 10, 3:30 PM)
Average62 °F79%29.87 "Hg
* Reported Aug 6 5:00 AM — Aug 21 5:00 AM, Lens, Weather by CustomWeather, © 2014

Note: Actual official high and low records may vary slightly from our data, if they occured in-between our weather recording intervals... More about our weather records

Advertising

Lens weather history for previous 24 hours

 ConditionsComfort  
Time TempWeatherWind HumidityBarometerVisibility
5:00 AM
Aug 21
52 °FPassing clouds.2 mph88%30.04 "HgN/A
4:30 AM52 °FClear.No wind88%30.04 "HgN/A
4:00 AM50 °FClear.3 mph94%30.04 "HgN/A
3:30 AM48 °FClear.3 mph94%30.04 "HgN/A
3:00 AM48 °FClear.2 mph94%30.04 "HgN/A
2:30 AM48 °FClear.2 mph94%30.04 "HgN/A
2:00 AM50 °FPassing clouds.5 mph94%30.04 "HgN/A
1:00 AM52 °FPassing clouds.5 mph94%30.04 "HgN/A
12:30 AM52 °FPassing clouds.5 mph94%30.04 "HgN/A
12:00 AM54 °FPassing clouds.7 mph88%30.04 "HgN/A
11:30 PM
Aug 20
54 °FPassing clouds.5 mph77%30.04 "HgN/A
11:00 PM52 °FPassing clouds.2 mph88%30.04 "HgN/A
10:30 PM54 °FPassing clouds.5 mph82%30.04 "HgN/A
10:00 PM54 °FSprinkles. Partly cloudy.9 mph82%30.07 "Hg5 mi
9:30 PM55 °FBroken clouds.7 mph77%30.04 "HgN/A
9:00 PM57 °FBroken clouds.2 mph77%30.04 "HgN/A
8:30 PM57 °FPassing clouds.3 mph77%30.01 "HgN/A
8:00 PM61 °FPassing clouds.2 mph72%30.01 "HgN/A
7:30 PM63 °FScattered clouds.3 mph64%30.01 "HgN/A
7:00 PM61 °FSprinkles. Broken clouds.5 mph63%30.01 "HgN/A
6:30 PM63 °FBroken clouds.5 mph56%30.01 "HgN/A
6:00 PM63 °FBroken clouds.1 mph56%30.01 "HgN/A
5:30 PM63 °FBroken clouds.6 mph59%30.01 "HgN/A
5:00 PM61 °FBroken clouds.7 mph59%30.01 "HgN/A
4:30 PM64 °FBroken clouds.7 mph56%30.01 "HgN/A
4:00 PM61 °FPartly sunny.8 mph68%30.01 "HgN/A
3:30 PM61 °FBroken clouds.12 mph72%30.01 "HgN/A
3:00 PM61 °FScattered clouds.15 mph72%30.01 "HgN/A
2:30 PM61 °FScattered clouds.13 mph72%30.01 "HgN/A
2:00 PM64 °FScattered clouds.10 mph52%30.01 "HgN/A
1:30 PM64 °FScattered clouds.9 mph52%30.01 "HgN/A
1:00 PM63 °FScattered clouds.9 mph56%30.01 "HgN/A
12:30 PM63 °FScattered clouds.10 mph56%30.01 "HgN/A
12:00 PM61 °FScattered clouds.6 mph59%30.01 "HgN/A
11:30 AM61 °FPassing clouds.7 mph63%30.01 "HgN/A
11:00 AM59 °FPassing clouds.5 mph72%30.01 "HgN/A
10:30 AM57 °FScattered clouds.5 mph72%30.01 "HgN/A
10:00 AM57 °FSunny.6 mph77%30.01 "Hg10 mi
9:30 AM55 °FSunny.6 mph82%30.01 "Hg10 mi
9:00 AM54 °FSunny.5 mph88%30.01 "Hg10 mi
8:30 AM50 °FSunny.2 mph94%30.01 "Hg10 mi
8:00 AM48 °FSunny.1 mph94%30.01 "Hg10 mi
7:30 AM46 °FClear.3 mph100%30.01 "Hg10 mi
7:19 AM46 °FClear.2 mph100%30.01 "Hg10 mi
7:00 AM46 °FClear.3 mph93%30.01 "Hg10 mi
6:30 AM46 °FFog.3 mph93%30.01 "Hg4 mi
6:00 AM46 °FFog.No wind100%30.01 "Hg4 mi
Weather by CustomWeather, © 2014

See weather overviewHow to use our weather pages